Find Starlink 30587

NORAD ID: 58064 Int'l Des: 2023-158 Owner: SPXS Country: US Constellation: starlink operational
LEOCIRCULAR

Current View

Loading 3D Globe...

About Starlink 30587

Starlink 30587 (NORAD 58064) is a starlink constellation satellite (v2 mini) launched Oct 13, 2023 by SPXS of US. It operates in LEO, CIRCULAR orbit with a mass of 730.00 kg.

About Starlink 30587

Description loading...

Upcoming Passes

Passes for default location (London). Set your location on the main map for personalized predictions.

Altitude History

Loading altitude history...

Two-Line Element Set

1 58064U 23158P 26178.15025566 -.00000377 00000-0 -41765-5 0 9993
2 58064 43.0020 128.6085 0001161 264.2949 95.7770 15.27565742150318
Epoch: Jun 27, 2026 • Age: 13 hours

Current Status

Altitude 483.2 km
Velocity 7.63 km/s
Sub-Earth Point 23.07°N, 7.84°W
Launch Date Oct 13, 2023
Age 2.7 years
Type internet

Technical Details

Classification Payload
Mass 730.00 kg
Dry Mass 700.00 kg
Total Mass 730.00 kg
Length 0.30 m
Diameter 4.10 m
Span 29.00 m
Shape Box + pan
Manufacturer SPXS
Bus Type Starlink V2M
Phase Status In Orbit
Owner/State SPXS/US

Most Searched